Content
SEND FEEDBACK

Daily
Averages
Monthly
Summary
Spain

BILBAO, SPAIN


Home > Europe > Spain
Elevation: 112 feet     Latitude: 43 18N     Longitude: 002 56W

WEATHER
 
SELECT A DAY
Number of Records: 231,041;   Date Range: 7/1/96 - 10/19/14
 
SHARE

PRINT THIS DATA

[ ← Previous Day ]
WEATHER ALMANAC - APRIL 3, 2013
[ Next Day → ]
[ °C ]   °F
Weather ElementAverageHighLow
Temperature52 °F64.4 °F (3:00 pm)39.2 °F (6:00 am)
Dewpoint44.3 °F48.2 °F (3:30 pm)37.4 °F (6:00 am)
Humidity77 %94 % (9:30 pm)52 % (2:30 pm)
Barometer29.63 in29.83 in (12:30 am)29.50 in (6:00 pm)
Wind Speed4.5 mph11.5 mph (4:00 pm)
Weather ElementAverage
Visibility5.7 mi
Wind DirectionENE (58.5 °)

Weather ElementTotal
Precipitation---
Heating Degree Days13.2 (Base 65)
Growing Degree Days1.8 (Base 50)
Averaged from 39 records on April 3, 2013
WEATHER CONDITIONS BREAKOUT
WIND DIRECTION BREAKOUT
WEATHER BY HOUR - APRIL 3, 2013
[ °C ]   °F
Local TimeTemperatureDewpointHumidityBarometerVisibilityWind DirectionWind SpeedGust SpeedPrecipitationEventsConditions
12:30 AM44.6 °F42.8 °F93 %29.83 in6.2 miVariable1.2 mphPartly Cloudy
5:00 AM41.0 °F39.2 °F93 %29.77 inVariable2.3 mphClear
5:30 AM41.0 °F39.2 °F93 %29.74 inEast (100°)4.6 mphClear
6:00 AM39.2 °F37.4 °F93 %29.74 inVariable2.3 mphClear
6:30 AM39.2 °F37.4 °F93 %29.74 inVariable1.2 mphClear
7:00 AM41.0 °F39.2 °F93 %29.74 inVariable2.3 mphClear
7:30 AM39.2 °F37.4 °F93 %29.74 inSSE (150°)3.5 mphClear
8:00 AM39.2 °F37.4 °F93 %29.71 inSSE (150°)3.5 mphClear
8:30 AM41.0 °F39.2 °F93 %29.71 inSE (130°)3.5 mphClear
9:00 AM42.8 °F41.0 °F93 %29.71 inVariable2.3 mphClear
9:30 AM44.6 °F41.0 °F87 %29.71 inVariable2.3 mphClear
10:00 AM46.4 °F42.8 °F87 %29.68 inSE (130°)4.6 mphClear
10:30 AM50.0 °F42.8 °F76 %29.68 inVariable3.5 mphClear
11:00 AM51.8 °F42.8 °F71 %29.68 inEast (100°)5.8 mphClear
11:30 AM53.6 °F44.6 °F72 %29.65 inESE (120°)4.6 mphClear
12:00 PM55.4 °F44.6 °F67 %29.65 inSE (130°)6.9 mphClear
12:30 PM57.2 °F44.6 °F63 %29.65 inEast (90°)3.5 mphClear
1:00 PM59.0 °F44.6 °F59 %29.62 inVariable1.2 mphClear
1:30 PM62.6 °F46.4 °F55 %29.62 inVariable2.3 mphClear
2:00 PM62.6 °F46.4 °F55 %29.59 in6.2 miVariable2.3 mphPartly Cloudy
2:30 PM62.6 °F44.6 °F52 %29.59 in6.2 miESE (120°)5.8 mphPartly Cloudy
3:00 PM64.4 °F46.4 °F52 %29.56 in6.2 miEast (100°)5.8 mphPartly Cloudy
3:30 PM64.4 °F48.2 °F56 %29.56 in6.2 miESE (110°)4.6 mphPartly Cloudy
4:00 PM62.6 °F46.4 °F55 %29.53 in6.2 miEast (90°)11.5 mphPartly Cloudy
4:30 PM64.4 °F46.4 °F52 %29.53 in6.2 miEast (90°)11.5 mphPartly Cloudy
5:00 PM62.6 °F46.4 °F55 %29.53 in6.2 miEast (90°)11.5 mphPartly Cloudy
5:30 PM60.8 °F48.2 °F63 %29.53 in6.2 miEast (80°)9.2 mphPartly Cloudy
6:00 PM59.0 °F46.4 °F63 %29.50 in6.2 miEast (80°)11.5 mphPartly Cloudy
6:30 PM57.2 °F46.4 °F67 %29.53 in6.2 miSE (130°)8.1 mphPartly Cloudy
7:00 PM55.4 °F46.4 °F72 %29.53 in6.2 miEast (100°)9.2 mphPartly Cloudy
7:30 PM55.4 °F46.4 °F72 %29.53 in6.2 miEast (90°)5.8 mphRainLight Rain
8:00 PM53.6 °F46.4 °F77 %29.56 in4.3 miVariable1.2 mphRain-ThunderstormLight Thunderstorms and Rain
8:30 PM51.8 °F48.2 °F88 %29.56 in3.7 miVariable2.3 mphRainRain Showers
9:00 PM51.8 °F48.2 °F88 %29.56 in3.7 miVariable2.3 mphRainRain
9:30 PM50.0 °F48.2 °F94 %29.56 in3.7 miEast (100°)4.6 mphRainRain
10:00 PM50.0 °F48.2 °F94 %29.56 in6.2 miVariable2.3 mphRainLight Rain
10:30 PM50.0 °F48.2 °F94 %29.59 in6.2 miCalmMostly Cloudy
11:00 PM50.0 °F48.2 °F94 %29.59 in6.2 miVariable2.3 mphRainLight Rain
11:30 PM50.0 °F48.2 °F94 %29.56 in5.0 miVariable2.3 mphRainLight Rain
Hourly data recorded from LEBB, located miles away from Bilbao, Spain







STORIES FROM OUR PARTNERS